Theta_e
320 320 321 319 323 324 325 333 327 324 329 322 318 323 319 319 324 318 318 319 319 316 316 321 324 321 320 322 325 329 327 329 329 318 320 327 333 335 334 335 335 337 339 341 343 343 343 343 342 341 341 340 339 338 337 337 338 338 338 338 337 337 335 332 331 334 336 337 337 336 336 335 334 334 333 332 332 333 332 329 326 327 324 317 311 309 313 314 311 310 309 310 314 317 318 320 325
321 321 323 322 323 323 327 334 331 327 329 319 315 323 319 320 321 318 320 318 319 317 319 326 327 325 325 327 328 332 329 330 328 319 327 331 333 337 337 338 338 339 340 340 343 343 343 343 342 341 341 340 339 338 338 338 338 338 338 338 337 336 335 333 331 331 333 335 336 335 335 335 333 333 333 333 332 332 331 329 328 327 322 317 311 308 311 311 306 308 310 311 314 320 321 321 322
321 322 323 323 323 325 336 334 327 327 328 320 317 323 320 319 319 322 322 316 318 319 320 322 324 321 321 329 329 330 328 331 333 327 331 331 332 338 341 341 340 342 340 339 343 343 343 343 342 341 340 340 339 338 338 338 338 338 338 337 337 336 334 330 327 328 329 331 333 333 334 334 333 332 333 332 332 332 329 329 329 327 321 317 312 308 309 307 304 306 310 310 311 319 323 319 318
321 323 323 325 326 333 352 339 330 331 324 321 320 322 325 323 322 323 321 318 318 318 317 317 324 318 319 330 325 325 329 330 332 332 333 329 333 337 340 343 342 343 340 340 343 343 343 343 343 342 342 340 339 339 338 338 338 338 338 338 338 337 335 330 328 332 332 331 330 330 332 333 332 332 332 332 332 330 326 328 329 327 323 317 313 310 307 304 301 303 308 310 310 317 323 321 323
322 324 320 324 329 332 341 330 332 335 322 324 322 322 332 328 323 323 320 317 315 316 317 319 323 318 323 328 323 328 328 326 327 329 333 331 335 335 339 344 343 343 340 340 342 343 343 343 343 343 342 340 339 339 338 338 338 338 338 337 338 338 336 331 332 335 334 333 330 326 327 330 331 331 331 332 332 328 325 328 329 327 324 318 313 310 306 302 300 300 305 311 313 318 323 325 328
322 323 320 322 321 321 327 321 323 327 322 326 323 322 329 325 323 323 317 313 314 317 318 323 324 325 333 329 326 332 327 327 329 329 332 333 336 335 338 341 343 343 341 341 342 343 343 343 343 342 342 341 340 339 339 339 338 338 337 337 337 337 336 332 332 334 334 334 331 327 327 329 330 331 331 332 331 327 326 329 329 327 324 319 314 309 305 300 300 300 302 311 317 321 325 326 328
322 322 328 331 323 322 327 323 321 322 319 321 324 323 323 323 321 318 315 314 316 317 320 326 326 328 332 325 324 328 327 330 330 331 333 335 336 337 338 339 343 342 341 341 341 343 343 342 342 342 342 341 341 339 339 339 339 338 337 337 336 336 336 334 333 333 334 335 333 331 331 331 332 331 332 332 331 329 328 329 329 327 323 319 315 310 304 300 300 301 301 310 321 325 325 325 326
323 323 332 340 332 331 332 323 321 324 318 315 321 323 322 323 318 316 316 316 315 316 320 322 322 325 322 321 328 326 326 330 331 333 333 336 337 337 339 338 343 343 342 341 341 342 342 342 342 342 342 342 341 339 340 339 339 338 338 337 337 336 336 336 335 333 333 334 334 333 333 333 332 332 332 333 331 330 330 330 329 326 323 320 316 311 305 301 299 301 301 307 320 325 324 324 325
320 321 330 336 329 331 332 320 317 320 318 316 317 320 322 319 315 315 316 315 313 316 318 316 317 320 321 325 331 324 324 331 332 334 334 338 337 337 340 340 343 342 342 341 342 342 341 342 341 342 342 342 341 340 340 339 339 338 338 337 337 337 336 336 335 334 332 333 334 333 333 333 333 333 333 333 332 331 331 330 329 326 323 320 317 313 307 302 299 300 301 304 314 320 321 322 322
320 322 328 334 327 325 323 318 321 320 317 318 317 318 321 316 314 315 316 315 314 318 317 316 318 320 323 328 327 318 321 329 332 334 336 339 337 338 341 342 343 341 341 342 342 342 342 342 341 343 342 342 341 341 340 340 340 338 338 337 337 337 335 335 335 334 333 333 334 334 333 333 333 333 333 333 333 332 331 330 329 326 323 321 318 315 310 304 300 300 301 303 308 313 317 319 320
326 330 337 341 330 322 319 319 322 322 317 319 317 318 320 316 316 316 317 315 314 318 315 317 323 323 321 323 323 316 316 325 331 333 335 339 340 339 341 342 343 340 340 341 343 343 342 342 342 342 342 342 341 341 341 340 340 338 338 337 337 337 335 334 334 334 333 333 334 333 333 333 333 333 333 333 333 333 332 331 329 326 323 322 319 316 313 307 301 300 300 303 307 311 315 317 319
325 332 349 344 329 326 326 321 318 321 318 317 316 316 317 315 316 316 317 317 315 317 315 315 320 322 321 321 319 313 314 323 329 332 333 337 341 340 340 341 342 341 341 342 344 343 342 342 341 341 341 342 342 341 341 340 340 338 338 337 336 336 336 334 334 333 332 333 333 333 333 332 333 333 333 332 333 333 332 331 329 326 323 322 319 317 314 309 303 300 300 302 307 313 316 318 319
331 336 352 331 322 330 326 320 320 322 318 318 318 314 314 314 317 318 317 317 316 317 314 312 316 319 321 319 315 310 312 322 327 331 330 334 339 340 340 340 341 342 342 344 344 344 343 343 342 341 341 341 341 341 340 341 340 339 338 337 336 335 335 334 333 333 333 333 333 333 332 332 332 332 333 333 333 333 332 331 329 326 324 322 320 319 317 313 308 301 299 300 305 310 314 316 317
330 341 355 326 317 325 321 319 320 319 318 322 321 315 315 315 317 317 317 318 316 317 313 309 313 319 319 316 316 315 313 319 327 331 329 331 337 338 340 340 341 342 342 343 343 343 342 342 341 340 341 341 341 340 340 340 340 340 339 337 336 334 334 334 334 334 333 333 333 333 332 332 331 332 333 333 333 333 332 330 329 327 324 323 321 321 320 317 314 307 302 300 301 303 306 307 309
323 338 348 328 318 321 320 321 321 320 320 322 317 316 317 314 315 316 317 319 315 313 311 310 311 315 318 316 320 318 312 319 327 330 328 330 334 337 338 338 340 339 340 340 338 339 338 337 338 338 341 343 341 340 340 339 340 340 339 337 336 334 333 333 333 333 333 333 333 333 332 332 331 331 333 333 333 332 332 330 329 327 325 323 322 322 322 320 318 314 311 307 305 303 301 300 301
326 339 340 328 319 318 319 320 321 320 321 322 316 315 318 313 314 315 313 314 314 312 313 314 311 312 315 316 317 312 312 319 324 328 328 329 332 334 335 336 337 337 337 337 334 336 335 333 336 337 338 342 341 340 340 339 340 340 340 338 336 335 334 332 331 332 333 333 333 333 332 331 330 330 332 333 333 332 332 331 329 327 325 324 323 324 323 322 320 318 317 315 314 312 307 302 300
334 343 341 328 320 318 319 319 320 323 324 323 317 316 319 315 313 313 310 313 316 315 315 314 310 309 312 313 311 309 313 317 321 326 326 325 327 329 331 332 334 335 335 335 333 334 335 334 336 337 337 341 341 340 339 339 339 339 339 338 337 336 334 332 329 329 331 332 333 332 332 331 330 330 331 332 332 332 332 330 329 328 326 325 325 324 324 324 322 320 318 317 317 316 314 310 305
343 342 336 324 319 320 321 323 320 321 324 319 316 317 320 318 315 313 312 316 316 314 315 314 311 309 309 311 311 312 313 315 322 325 322 320 322 323 325 327 330 332 333 334 333 332 334 335 337 338 339 340 340 339 338 338 339 339 339 338 338 336 335 333 330 329 330 331 332 332 332 331 331 330 330 332 332 332 332 330 329 328 326 326 325 325 325 324 322 321 319 318 317 316 315 314 311
342 341 334 326 327 323 320 324 319 317 319 317 317 317 318 318 317 314 314 317 315 315 317 314 314 312 311 312 312 314 312 316 324 322 318 318 318 319 321 322 325 328 329 331 332 331 332 332 334 336 338 338 337 337 337 338 338 338 338 338 338 337 337 335 333 332 331 331 331 331 331 331 331 331 330 331 331 331 331 330 329 328 327 326 325 325 325 325 324 321 320 319 317 316 315 313 312
330 338 334 328 332 325 317 321 320 318 317 317 318 315 316 316 315 314 316 319 315 318 321 316 318 318 316 314 311 314 313 317 323 321 317 316 317 317 318 318 320 322 324 325 327 329 330 331 332 333 335 336 335 334 335 336 336 336 337 337 338 338 338 336 335 334 333 332 332 332 331 330 331 332 332 331 331 331 331 330 329 328 327 326 325 325 325 325 325 322 320 319 318 317 315 313 313
322 329 329 324 325 321 318 318 318 318 316 318 320 316 316 315 314 315 317 319 317 320 322 320 323 322 318 315 311 312 313 316 320 319 316 315 316 316 316 317 317 318 319 320 321 324 326 329 330 331 333 335 334 334 336 335 335 337 337 337 337 338 338 338 336 335 334 333 333 333 331 330 331 332 333 332 332 331 331 330 329 329 328 326 325 325 325 324 324 322 321 320 320 319 317 315 315
320 319 319 321 320 317 317 318 317 316 315 319 320 317 317 314 315 317 318 321 322 320 318 319 321 318 315 314 311 311 311 312 315 315 314 314 314 315 315 315 316 316 316 316 317 318 320 323 327 330 331 333 334 335 336 336 336 339 338 336 336 337 338 338 338 337 335 335 334 333 332 332 332 332 333 333 332 331 331 330 329 329 328 327 326 326 326 325 324 322 321 321 320 320 319 317 316
322 317 316 320 319 317 318 319 317 318 319 320 319 317 316 315 316 316 317 320 320 314 313 314 313 311 311 311 310 312 312 310 311 313 313 313 314 315 315 314 315 315 315 315 315 315 316 318 321 326 329 330 333 335 335 336 337 338 337 337 337 337 337 338 338 337 336 335 334 334 332 333 333 333 333 333 332 332 331 330 329 329 329 328 327 327 328 325 324 323 322 321 320 320 320 318 317
326 320 316 318 317 318 319 319 319 320 321 319 317 315 315 318 317 313 314 319 318 309 307 307 306 307 309 311 311 311 311 309 311 312 312 313 314 314 314 314 314 314 314 314 314 314 315 316 317 322 327 329 333 334 334 335 337 338 336 337 338 336 336 336 336 336 336 335 334 335 333 333 333 333 333 332 332 332 331 330 329 329 329 328 328 328 329 326 324 324 323 321 321 320 320 319 318
325 319 318 319 317 318 320 320 321 321 319 316 316 316 317 319 315 312 317 321 315 308 306 305 306 308 310 315 314 308 307 309 310 311 311 312 313 313 313 313 313 313 313 312 313 314 314 315 316 318 324 329 332 334 334 334 336 337 336 336 336 336 334 334 334 334 334 334 333 334 334 333 333 333 333 332 332 332 331 331 330 329 329 328 327 328 328 326 324 323 323 322 321 321 320 319 319
321 319 320 320 318 318 318 319 321 320 318 315 316 318 318 315 313 314 321 319 311 308 310 309 311 313 314 316 312 306 306 308 309 311 311 311 312 312 312 312 312 312 311 311 312 314 315 316 317 316 321 327 331 333 334 334 335 336 335 334 335 334 333 334 334 333 332 333 332 333 333 333 333 332 332 331 331 331 331 331 329 329 329 329 327 327 326 325 324 323 322 322 322 321 320 319 319
319 321 320 319 320 320 317 317 319 317 317 317 316 319 318 314 314 316 320 313 308 312 312 310 313 315 314 314 311 307 307 307 309 310 310 310 311 311 312 312 312 311 310 311 312 313 315 317 319 317 319 325 330 332 333 334 334 334 333 332 333 333 332 333 333 334 333 333 333 332 332 332 332 332 331 331 330 330 330 329 329 329 329 328 327 326 325 324 324 322 322 322 321 321 320 318 318
317 320 318 320 323 321 317 317 317 315 315 317 316 317 317 313 315 318 317 310 309 315 314 311 314 315 313 314 312 307 306 308 309 309 309 309 310 311 312 312 311 311 311 311 313 313 315 318 320 319 321 326 330 332 333 333 333 333 333 332 332 332 331 331 331 332 333 333 333 332 332 332 332 331 331 330 330 330 329 328 328 328 327 326 326 326 325 324 323 322 322 321 321 320 319 318 318
316 319 318 323 328 323 317 316 317 315 315 317 316 316 318 315 316 318 313 308 309 313 315 312 313 313 312 313 311 307 305 307 308 308 309 309 310 311 311 312 311 311 311 312 314 315 317 319 321 322 324 328 330 331 332 332 332 332 332 332 331 331 331 331 331 331 331 332 332 331 331 331 332 331 330 330 329 329 328 327 327 326 326 325 325 325 325 324 323 322 321 321 320 320 319 318 317
317 317 317 324 328 324 316 314 316 314 316 317 316 319 326 325 319 316 310 308 311 312 313 312 312 312 312 311 311 310 305 305 306 307 309 310 310 311 311 311 310 311 311 312 316 317 319 321 322 324 325 328 329 331 331 330 331 331 331 331 330 330 330 331 331 330 330 331 331 330 330 330 330 329 328 328 328 328 327 326 325 325 325 325 324 324 323 323 322 322 320 320 319 319 319 317 316
320 315 322 327 320 327 325 315 316 315 315 316 315 318 326 328 322 316 309 308 312 314 313 311 311 311 311 311 310 310 306 304 306 307 309 309 309 311 311 310 311 312 311 312 316 318 320 322 323 325 325 327 328 329 330 329 329 329 329 330 328 328 329 330 330 330 329 329 329 329 329 328 328 327 327 328 327 326 326 325 325 324 323 323 323 322 322 321 321 321 319 319 318 317 317 314 313
330 315 327 332 318 332 335 315 316 317 314 312 315 320 322 322 320 313 307 307 311 314 313 309 310 310 309 310 308 309 307 304 305 306 308 308 310 312 311 310 311 312 312 313 316 318 320 321 323 324 324 326 327 327 328 328 328 328 328 327 327 327 328 328 328 328 328 327 327 328 327 327 327 326 326 326 325 325 325 324 323 323 322 322 321 320 321 321 320 320 318 318 317 315 313 311 309
337 321 324 333 321 328 330 316 316 316 315 312 313 321 323 321 317 309 306 307 310 313 313 310 309 308 308 308 307 308 308 306 304 304 306 307 310 312 311 311 311 312 314 314 316 318 320 321 322 323 324 325 325 326 327 327 327 328 327 325 326 327 326 326 326 326 326 325 326 326 326 326 326 325 324 324 324 323 323 323 321 321 320 320 319 318 318 318 318 317 314 314 314 312 310 308 306
333 322 321 331 326 323 325 324 318 313 315 315 313 316 319 319 316 312 309 307 309 312 313 310 308 307 307 307 307 307 307 308 306 303 305 306 309 312 311 311 312 313 314 314 316 318 320 319 320 322 323 323 323 325 325 324 325 325 323 322 324 325 324 324 325 324 324 324 324 324 324 324 324 323 323 323 322 321 321 320 319 318 317 316 315 315 313 310 310 309 308 309 311 310 308 306 305
332 326 324 328 324 321 324 327 319 312 314 316 315 316 316 317 314 315 313 308 310 313 311 309 308 307 307 306 307 307 306 308 305 303 304 306 308 311 311 311 312 313 313 314 316 318 319 318 318 320 321 320 322 323 322 321 322 322 320 318 321 322 322 323 323 322 322 322 323 322 322 322 322 322 321 321 321 320 318 318 317 315 312 311 310 308 303 301 302 302 304 307 308 307 306 305 303
334 335 335 331 326 325 327 327 323 316 315 317 317 316 317 316 315 316 315 309 309 311 309 308 309 307 307 306 306 306 307 307 304 303 304 305 306 309 312 312 312 313 313 314 315 316 318 317 315 316 316 318 319 318 317 318 318 316 315 316 317 317 318 319 319 319 319 319 319 319 320 320 320 320 319 319 319 318 317 316 314 309 306 306 304 300 298 299 301 301 304 307 307 305 303 302 301
328 332 333 330 327 328 327 326 323 315 314 321 319 316 317 316 316 316 314 311 310 311 310 308 308 308 307 307 306 306 306 305 303 303 304 304 304 307 311 312 312 312 311 312 313 315 316 316 315 314 313 314 315 315 316 317 316 314 314 314 314 313 314 316 316 315 315 316 316 316 317 317 317 317 317 317 317 317 316 313 309 304 302 301 298 296 296 299 302 303 304 306 305 304 300 298 298
322 324 324 326 327 326 324 321 320 315 315 323 321 316 316 314 314 313 313 314 314 313 312 311 309 308 307 307 306 306 306 305 303 302 302 303 304 305 309 310 310 309 308 310 312 314 314 314 314 314 313 311 312 313 314 315 315 314 315 314 313 311 311 313 313 312 313 313 313 313 314 314 315 315 315 315 315 314 312 309 305 300 298 297 295 294 295 298 302 304 304 304 304 302 299 297 297
319 322 320 324 326 323 323 321 317 314 315 324 324 318 317 316 314 313 313 314 313 312 312 312 311 310 308 307 307 306 307 308 306 302 300 301 303 305 307 307 307 308 308 309 311 313 312 311 312 313 313 311 309 309 310 311 312 312 313 312 312 312 309 309 310 310 311 311 311 311 311 312 313 313 313 313 312 311 310 306 300 297 295 295 294 294 293 295 300 303 304 303 302 300 298 297 298
320 322 320 324 325 322 325 324 317 315 316 321 321 318 317 315 315 315 314 313 312 312 312 311 311 311 310 309 308 307 307 307 306 303 300 300 302 305 306 306 306 308 307 308 309 310 309 309 309 311 311 309 307 307 308 310 310 309 310 309 309 311 308 306 307 307 307 308 308 308 309 310 311 312 311 310 310 309 306 300 296 294 294 294 294 293 293 293 295 298 301 302 302 300 297 296 298
324 323 320 323 324 323 325 324 321 322 322 319 319 322 323 321 320 318 318 319 316 313 313 313 311 310 310 310 309 308 307 306 306 304 301 299 301 304 305 306 306 307 307 307 308 309 309 308 308 309 308 306 306 307 308 309 308 307 306 304 304 305 302 301 302 301 302 304 305 305 306 307 308 309 308 308 307 304 298 295 294 294 293 293 293 293 293 292 292 293 295 297 299 299 295 292 294
326 326 322 321 323 323 323 322 322 326 330 323 319 327 335 334 329 326 325 326 324 317 316 316 314 311 310 310 309 308 308 307 305 304 302 300 300 303 305 306 306 307 307 306 308 310 310 308 307 308 306 305 306 307 307 308 308 308 308 305 302 299 296 296 298 299 299 301 301 302 303 303 304 305 305 303 300 296 294 293 293 293 293 292 293 292 292 291 291 291 292 292 293 294 293 290 290
326 328 324 320 320 321 322 322 322 328 332 322 317 325 333 330 327 331 332 331 330 325 321 319 316 314 312 310 309 309 308 307 306 304 302 300 300 303 305 305 306 307 307 306 307 308 309 308 307 308 306 305 306 308 307 307 308 309 310 311 308 303 298 295 296 298 298 299 298 298 299 300 300 300 299 296 294 293 293 293 292 292 292 292 292 292 291 291 291 290 290 291 291 291 291 291 289
329 326 323 321 319 321 324 323 324 327 327 323 321 323 325 325 323 329 330 326 327 324 321 321 317 316 315 312 309 309 308 307 306 304 302 300 300 303 305 305 307 307 307 306 306 306 307 307 306 308 307 305 306 308 307 307 309 309 310 310 307 305 305 300 296 295 294 294 294 294 295 295 295 294 293 292 292 292 292 292 292 292 291 291 291 291 291 290 290 290 289 290 289 290 290 290 289
328 321 320 322 322 325 327 326 326 324 323 329 329 321 322 328 329 329 325 322 326 325 322 322 319 318 318 315 312 308 307 306 305 304 303 300 300 302 305 306 307 307 306 306 305 305 306 305 304 305 305 304 304 306 307 307 308 310 309 307 303 301 302 301 297 293 291 291 291 291 291 291 291 291 291 291 291 291 291 291 291 291 290 290 290 290 290 289 289 289 289 289 289 288 288 289 288
320 317 321 323 324 327 329 330 329 326 324 328 328 323 324 328 329 329 324 324 327 324 322 321 319 320 319 318 315 309 307 306 305 304 302 300 300 302 305 306 306 307 306 306 305 304 305 304 303 303 302 302 303 305 306 305 305 308 308 307 305 300 297 295 294 291 290 290 290 290 290 290 290 290 291 291 291 291 291 291 290 290 290 290 290 289 289 289 289 288 288 288 288 288 287 287 287
317 322 329 329 330 330 331 330 327 327 328 326 326 325 325 326 330 330 325 327 331 325 324 325 325 327 326 322 317 310 308 306 305 304 301 300 300 301 304 305 305 306 305 305 305 304 304 303 302 302 301 301 303 304 305 304 304 306 306 307 307 303 297 293 291 290 289 289 290 289 290 290 290 290 290 290 290 290 290 290 290 290 289 289 289 289 288 288 288 288 288 287 287 287 287 287 287
320 333 334 330 332 330 329 330 327 328 330 328 324 322 323 325 330 330 325 327 329 325 325 328 330 334 333 327 318 310 308 306 304 304 302 300 300 300 302 303 304 305 304 304 304 303 303 303 302 301 301 301 302 303 304 303 304 305 304 305 307 305 300 294 291 290 289 289 289 289 289 289 289 290 289 290 289 289 289 289 289 289 289 288 288 288 288 288 287 287 287 287 287 286 286 286 286
323 332 329 327 330 329 329 330 328 328 327 321 318 320 322 323 324 324 324 325 325 322 320 322 325 327 326 327 321 311 307 306 304 303 302 301 300 299 300 302 303 303 303 302 302 302 301 301 302 301 301 300 301 302 303 303 303 303 303 304 305 304 301 297 292 290 289 289 290 289 289 289 289 289 289 289 289 289 289 289 289 288 288 288 288 287 287 287 287 287 287 286 286 286 286 286 286
322 325 327 328 329 331 336 333 326 326 324 317 315 319 324 325 324 323 320 320 323 321 319 318 319 318 318 321 320 313 308 306 304 302 302 301 300 299 300 301 302 302 302 301 301 301 300 300 300 300 300 299 300 301 302 301 301 302 302 303 303 302 300 296 292 291 290 289 290 290 290 290 290 289 289 289 289 288 288 288 288 288 288 288 287 287 287 287 287 287 287 286 286 286 285 285 285
320 323 325 327 331 335 338 334 329 329 329 321 316 321 330 332 330 325 320 320 322 321 320 318 316 314 314 315 316 314 309 305 303 302 301 301 299 299 300 300 301 301 301 301 300 300 299 298 299 299 299 299 300 301 300 299 300 300 300 301 301 300 298 294 292 291 290 290 290 290 290 290 290 289 289 289 288 288 288 288 288 288 287 287 287 287 287 287 287 287 287 286 286 285 285 285 285
320 322 323 325 328 327 326 327 326 326 328 326 321 324 330 329 325 322 323 325 323 320 319 319 317 314 314 316 314 313 310 304 302 302 301 301 299 299 300 300 301 301 300 300 300 299 299 298 298 298 299 300 300 300 299 299 299 298 298 299 299 298 295 292 291 290 290 290 290 291 290 290 290 289 289 288 288 288 288 287 287 287 287 287 287 287 287 287 287 287 286 286 286 285 285 285 285
320 320 323 323 321 322 324 324 320 319 323 327 325 326 328 326 323 322 322 323 322 321 321 322 320 316 316 318 314 311 309 304 302 301 301 300 299 299 300 300 300 300 300 300 299 299 299 299 298 298 299 299 299 299 299 298 298 297 297 297 296 294 292 291 290 290 290 290 290 291 290 290 289 289 288 288 288 287 287 287 287 287 287 286 286 287 287 287 286 286 286 286 285 285 284 285 285
322 323 323 319 318 324 328 327 326 326 327 328 324 326 329 327 328 326 321 321 322 321 321 320 320 319 320 319 314 311 308 304 302 301 300 299 298 298 299 299 300 300 300 300 299 300 300 300 299 298 298 298 298 298 298 297 296 295 295 295 293 291 290 290 290 290 290 290 290 290 290 289 289 288 288 288 287 287 287 287 287 287 286 286 286 287 287 286 286 286 285 285 285 285 284 284 284
321 326 323 322 326 329 325 326 331 331 330 330 326 323 325 324 326 325 322 326 331 326 322 321 320 319 320 319 316 312 307 304 302 301 301 299 298 298 298 299 299 300 299 299 299 299 299 299 300 299 299 299 298 297 296 295 295 295 294 293 291 290 290 290 290 290 290 290 290 289 289 289 288 288 288 288 287 287 287 287 286 286 286 286 286 286 286 286 286 285 285 285 285 285 284 284 284
316 319 318 320 325 326 325 325 327 329 329 331 329 326 326 325 324 325 323 325 330 329 329 328 324 322 320 318 317 314 308 305 302 301 301 299 297 297 298 298 299 299 299 299 298 298 298 298 299 299 298 298 298 296 294 293 293 293 293 292 290 289 289 289 290 290 290 290 290 289 289 288 288 288 288 287 287 287 287 287 286 286 286 286 286 286 286 286 285 285 285 285 285 284 284 284 284
318 320 319 320 320 322 325 323 323 328 330 331 331 328 327 328 324 324 325 325 326 329 330 330 330 331 326 317 314 314 310 304 302 301 300 298 296 296 297 298 298 298 298 298 298 298 297 297 298 298 297 297 296 295 293 293 292 292 292 290 289 289 289 289 289 290 290 290 289 289 288 288 288 288 287 287 287 287 287 287 286 286 287 286 286 286 286 285 285 285 284 284 284 284 284 284 284
319 320 320 320 320 321 323 323 322 323 325 330 332 327 326 332 327 322 325 330 328 324 324 329 334 331 323 316 314 314 310 306 302 301 300 298 295 296 296 297 297 297 297 297 296 297 297 296 297 297 297 296 295 294 292 292 291 291 291 290 289 289 288 288 289 289 289 289 289 288 288 288 288 287 287 287 287 287 287 286 286 286 286 286 286 286 286 285 285 284 284 284 284 284 284 284 283
Wind_Speed
6 4 4 3 2 1 2 5 3 2 4 3 1 1 2 2 2 2 1 2 2 2 2 2 4 4 4 5 7 6 3 3 4 4 3 3 4 2 4 5 4 6 12 16 15 13 13 12 12 12 12 12 11 12 13 13 14 15 14 14 13 13 13 14 14 14 14 14 14 14 14 14 14 14 14 14 15 16 18 19 21 23 24 24 23 21 19 18 17 16 14 13 12 12 12 12 12
5 3 3 1 2 1 1 4 3 3 5 2 2 2 2 2 1 5 4 2 3 2 1 6 8 7 7 7 7 6 3 1 3 3 3 1 4 2 2 3 5 8 13 17 16 15 14 13 13 12 12 12 12 12 12 13 13 14 14 13 13 13 14 14 14 14 14 14 13 13 14 14 14 14 14 14 15 16 17 18 21 23 23 23 23 21 20 18 18 17 15 14 14 15 15 14 14
5 2 2 2 2 3 1 4 3 2 5 2 3 3 1 1 4 7 6 4 6 6 4 5 7 5 3 4 4 4 2 2 1 2 2 0 2 2 3 6 9 10 13 16 16 15 14 14 14 12 12 13 12 13 12 13 12 13 13 13 14 13 14 14 14 14 14 14 13 14 14 14 14 13 13 13 14 16 17 17 20 22 22 22 22 21 20 19 18 17 16 15 15 16 16 16 15
4 2 2 3 1 4 4 4 3 4 3 3 2 4 2 4 7 6 5 4 5 4 2 3 4 2 2 5 2 2 1 2 2 2 2 0 1 2 5 8 9 10 13 15 15 15 14 13 13 13 13 12 12 12 12 12 12 12 12 13 14 13 13 13 14 14 14 14 13 13 14 14 13 13 13 13 14 16 16 17 20 21 21 21 21 20 19 18 18 17 16 15 16 17 17 17 17
2 3 4 2 3 2 3 3 3 4 3 4 3 5 5 6 7 5 4 3 4 3 3 3 2 2 3 3 0 2 1 2 3 2 1 1 3 3 7 10 9 11 13 14 14 14 13 13 12 11 12 12 11 12 12 12 12 12 12 12 13 13 12 12 13 14 14 13 12 12 13 13 12 12 12 12 13 14 15 17 18 18 19 20 20 20 19 18 17 17 16 16 16 17 17 17 17
0 3 6 6 4 1 3 3 3 2 4 5 4 5 6 6 7 5 1 1 1 2 2 3 3 2 2 1 0 2 1 2 3 3 2 1 4 5 8 10 10 11 12 14 13 13 13 12 11 10 10 11 11 11 11 12 12 12 11 11 12 12 12 11 12 13 13 12 11 12 12 12 11 11 11 12 12 12 14 15 16 17 18 19 20 19 18 17 16 16 16 16 17 17 17 18 17
1 1 5 7 3 2 4 3 5 2 3 5 4 5 7 6 5 5 2 1 3 2 2 2 4 6 2 2 1 1 2 2 2 2 2 2 4 6 9 10 11 13 12 13 13 13 12 11 11 10 10 10 10 10 10 11 11 11 11 11 11 11 11 11 11 11 12 11 11 11 11 11 11 11 11 11 12 12 13 14 14 16 18 18 19 19 18 17 16 16 16 16 17 17 18 18 17
4 1 1 5 3 4 4 3 3 3 1 3 4 5 7 7 5 5 2 1 1 1 3 1 2 5 0 2 1 1 4 2 1 2 2 2 4 7 9 11 12 13 13 13 14 13 12 11 10 10 10 10 10 10 10 10 11 11 11 11 11 11 11 11 11 10 10 10 10 10 10 10 10 10 11 11 11 11 12 13 14 16 17 18 19 19 18 17 16 16 15 16 16 17 18 17 16
6 3 1 5 3 3 3 2 0 2 2 3 4 4 4 4 4 4 3 1 1 2 1 3 0 2 1 2 1 4 3 2 1 3 2 1 5 9 11 12 12 12 13 14 14 13 12 11 10 10 10 10 10 10 10 11 11 11 11 11 11 10 10 10 11 10 10 9 9 9 9 9 9 10 10 11 10 10 11 12 13 15 17 18 19 20 19 17 16 16 16 15 16 17 16 15 15
5 3 2 4 3 3 3 1 1 2 3 4 4 5 4 5 4 2 4 3 1 2 1 2 3 3 4 3 2 3 1 1 2 4 4 3 6 11 13 13 13 12 13 15 14 12 12 12 10 10 10 10 10 10 10 10 10 11 11 11 11 10 10 10 10 10 9 9 8 8 8 8 8 9 10 10 10 9 10 11 12 14 16 17 18 20 20 18 17 16 16 16 16 16 15 15 15
3 4 3 4 4 3 2 3 3 3 4 4 3 6 5 5 5 3 3 4 1 2 2 1 4 3 4 0 3 1 1 1 3 6 6 5 7 12 14 14 15 12 13 15 13 11 12 12 11 11 10 10 10 10 10 10 10 11 11 11 11 10 10 10 10 9 9 8 8 8 7 8 8 8 9 9 9 9 9 9 11 13 15 16 18 19 20 19 17 16 17 16 16 15 15 15 14
2 3 4 4 3 3 4 5 4 4 5 3 1 5 3 5 6 4 3 5 1 2 2 1 3 5 4 2 3 2 3 3 4 7 7 5 8 12 14 15 15 14 14 14 14 13 13 11 10 9 9 9 10 11 10 10 10 10 11 11 12 11 10 10 9 9 8 8 7 7 7 7 8 8 9 9 9 8 8 9 11 13 15 16 17 19 20 19 18 17 17 16 16 15 15 14 13
4 2 5 3 3 4 4 5 3 1 4 3 4 3 3 5 5 7 6 5 2 3 0 3 4 5 3 3 3 3 4 6 6 7 7 7 9 12 14 15 15 15 15 15 16 15 13 12 11 10 9 9 10 11 11 10 11 11 11 12 12 11 10 9 9 9 8 7 7 6 6 7 8 8 9 9 8 8 8 8 10 12 14 15 17 19 19 19 18 17 17 16 16 14 14 13 12
3 3 5 3 2 3 4 3 2 3 3 5 3 2 1 2 4 6 8 5 1 3 1 3 4 4 2 1 2 4 7 9 8 7 7 9 10 11 13 15 16 16 16 15 15 14 14 12 12 11 10 11 11 11 11 11 11 12 12 12 12 11 10 10 9 9 8 8 7 6 6 7 8 8 8 9 8 8 8 8 9 11 13 14 16 18 19 19 19 18 17 16 16 15 14 13 12
3 3 5 4 2 2 3 2 3 5 4 4 2 2 2 1 4 4 5 6 2 2 2 2 3 1 3 4 4 5 10 13 11 9 8 11 12 12 12 14 14 15 15 14 13 12 11 10 12 14 11 11 12 11 12 11 11 11 12 13 13 12 11 11 10 10 9 9 8 7 7 7 7 7 8 8 8 8 7 7 8 10 12 13 15 17 18 19 19 19 18 17 16 15 14 14 14
3 4 5 4 2 2 4 2 3 3 5 4 2 1 5 1 2 3 3 4 3 2 3 1 2 1 3 5 4 6 16 16 12 10 10 12 13 13 12 13 13 13 13 13 13 11 11 11 12 15 12 11 12 12 11 10 10 11 13 14 14 13 12 11 10 10 10 10 9 8 8 8 7 7 8 8 8 8 7 7 8 9 11 12 14 15 17 18 19 19 18 18 17 17 16 15 15
3 4 5 3 3 4 4 4 4 4 5 5 4 2 6 1 1 3 1 5 5 2 4 1 3 2 2 3 0 10 18 16 14 13 12 13 14 14 13 13 13 13 13 12 14 13 13 11 10 13 14 14 13 12 11 9 9 10 12 14 14 13 12 11 11 11 11 11 10 9 9 8 8 8 8 9 9 9 8 7 7 9 9 11 13 14 15 17 17 17 18 18 18 17 17 17 16
5 4 4 3 4 4 5 7 7 4 4 6 5 4 8 4 1 2 2 7 4 2 4 3 5 4 1 1 4 10 16 16 17 16 15 14 13 14 13 14 14 14 14 13 14 14 15 13 11 13 13 14 13 13 14 11 10 10 11 12 14 14 14 13 12 11 11 11 11 10 9 9 8 8 9 10 10 9 8 8 7 8 9 9 11 13 14 15 15 16 17 17 17 17 18 18 17
4 3 4 3 5 4 5 7 6 3 3 6 4 4 6 6 5 3 2 1 2 2 2 5 5 3 1 2 5 9 14 17 18 18 16 14 14 15 14 14 15 15 15 15 15 15 17 16 14 15 12 12 15 15 16 14 12 11 11 12 14 15 15 14 13 12 11 10 10 9 9 9 9 9 9 10 11 10 9 9 8 8 8 8 10 12 12 12 13 15 16 16 17 18 18 18 18
2 4 4 4 6 4 4 6 7 5 4 7 4 2 2 3 4 2 4 4 1 3 4 1 3 6 5 3 4 9 14 17 18 18 16 14 13 14 14 14 14 14 14 15 15 15 16 17 17 18 15 13 15 17 16 15 14 12 11 11 13 15 15 15 13 12 11 10 9 9 9 10 10 10 10 12 13 12 11 10 9 9 9 8 8 10 11 11 11 13 14 15 16 18 19 19 19
2 4 3 5 4 1 3 6 6 4 5 7 4 4 1 3 2 2 6 6 3 7 8 8 9 10 9 6 6 10 14 16 16 17 15 14 13 12 13 12 12 13 13 13 14 15 16 17 18 19 18 15 15 16 15 16 15 14 13 11 12 15 16 16 14 13 11 10 9 8 8 10 11 11 12 15 15 13 13 12 11 10 10 9 8 8 10 10 10 11 12 14 15 17 19 19 19
3 1 3 5 4 1 3 4 3 3 5 5 6 4 3 2 1 3 8 6 6 6 7 9 9 10 12 9 9 10 12 14 14 16 16 15 14 13 12 12 11 11 11 12 13 14 15 16 18 20 20 18 17 15 15 16 17 17 15 13 14 16 17 16 14 13 12 11 10 8 7 10 12 12 13 17 17 14 14 13 12 12 11 11 9 8 9 10 10 10 11 13 14 15 17 18 18
3 1 1 3 3 2 2 2 3 4 7 6 6 4 2 3 1 2 8 8 6 4 5 7 6 10 13 11 10 9 9 12 13 16 17 17 16 15 14 12 11 11 11 12 12 13 14 16 17 19 20 20 18 15 15 16 16 18 16 16 17 17 17 16 15 14 13 11 9 9 9 10 11 12 13 16 19 16 15 14 14 14 12 12 11 9 9 10 10 9 10 11 13 13 14 15 17
6 1 1 1 3 3 1 2 3 5 7 5 4 3 3 5 3 1 5 9 4 4 3 4 8 13 14 10 8 8 9 11 13 15 16 17 17 15 14 12 12 12 12 12 12 13 14 15 16 17 19 21 20 16 17 17 17 18 17 18 18 17 17 16 15 13 11 11 11 11 11 11 12 13 12 14 18 17 16 16 15 14 13 12 10 8 10 12 11 9 9 10 11 11 12 13 15
5 3 2 0 1 3 1 3 1 3 4 3 4 3 3 5 3 0 7 8 2 2 4 7 10 12 11 8 7 8 9 10 12 13 13 14 14 14 13 12 12 12 12 12 12 12 14 14 15 16 18 22 21 16 18 19 19 18 17 19 19 19 20 17 16 15 12 11 11 11 12 12 13 15 13 14 15 15 17 16 15 14 13 11 10 8 11 14 12 11 10 10 9 9 10 12 14
1 4 2 1 1 4 1 1 1 1 1 3 4 3 5 2 1 4 7 6 2 4 6 6 8 9 7 7 7 8 8 10 12 12 12 13 13 13 13 12 12 12 11 11 11 11 11 11 12 14 17 21 21 17 19 20 19 19 17 19 19 18 19 19 18 18 16 13 12 12 12 12 13 14 14 14 14 15 17 16 14 14 13 11 9 10 13 14 13 12 11 10 8 8 10 12 13
2 4 2 2 2 4 1 3 3 1 1 2 5 5 5 3 1 4 5 3 4 6 6 4 7 7 7 5 6 9 9 12 14 13 12 13 14 14 13 12 12 11 9 8 9 9 9 9 10 13 17 20 19 18 21 20 18 19 18 18 18 16 15 15 15 16 17 16 14 13 12 12 13 14 13 14 15 16 17 15 13 13 12 11 11 12 13 12 13 12 12 11 8 9 11 13 13
2 3 0 3 5 4 2 2 4 1 1 5 7 4 4 4 1 6 4 4 5 7 6 4 6 6 6 6 6 7 10 13 14 14 15 16 16 16 14 14 12 10 9 8 8 9 9 8 9 13 18 19 20 20 21 20 18 18 18 16 17 16 13 12 12 12 14 17 17 15 11 11 14 15 14 14 14 15 15 14 14 13 12 13 13 13 13 12 13 12 11 10 9 11 13 14 14
2 4 1 5 8 5 3 2 3 4 2 5 6 2 4 3 7 6 2 5 4 6 7 5 6 6 5 6 5 6 9 13 14 16 18 18 17 16 15 14 12 11 11 9 9 9 10 10 12 16 18 20 21 20 20 21 21 19 18 17 16 14 14 15 16 13 12 14 16 13 11 13 16 16 15 15 15 15 16 16 16 15 14 14 13 12 12 12 12 11 10 10 11 13 13 14 15
1 3 2 4 7 5 3 1 2 5 3 4 4 2 6 8 10 5 2 6 6 5 7 6 6 5 5 6 5 6 9 13 15 18 19 17 16 15 15 14 13 12 11 11 11 11 12 13 16 18 19 20 21 22 21 20 21 22 21 18 16 16 16 16 15 14 13 13 14 14 16 17 17 17 16 16 17 17 18 18 17 16 15 13 12 11 11 11 11 11 11 11 12 12 13 14 16
1 1 2 3 2 4 6 1 4 6 2 2 4 3 6 9 10 5 4 7 8 8 8 7 7 6 6 6 6 6 8 13 16 18 19 17 16 16 16 15 14 13 12 13 13 13 14 15 17 18 20 22 22 23 22 19 20 23 23 21 20 20 19 16 15 16 16 16 15 16 18 18 17 17 16 16 18 18 18 17 16 16 14 13 12 11 11 11 10 10 11 11 11 11 13 17 19
3 1 3 3 1 5 8 2 6 5 0 1 4 3 7 8 9 4 4 6 7 9 8 7 8 8 7 6 7 7 7 12 15 18 19 18 17 17 17 15 15 14 13 14 14 15 16 17 19 20 21 22 23 24 23 23 23 21 20 21 21 20 18 17 15 14 16 17 16 17 17 17 17 17 16 15 16 17 16 16 15 14 14 13 12 12 11 9 8 10 11 11 12 15 18 21 23
4 0 3 2 2 3 6 3 3 2 2 0 1 3 4 4 4 2 4 6 6 7 8 8 9 9 8 7 7 6 6 8 12 17 19 19 19 18 17 15 15 15 14 15 16 17 18 18 20 20 21 22 23 23 24 25 25 22 22 23 21 17 17 16 12 13 16 17 17 18 18 18 18 16 16 16 17 18 17 17 16 15 14 13 12 11 10 9 10 12 14 14 15 19 23 25 26
4 1 2 4 3 2 3 4 3 1 3 2 2 3 7 7 4 0 5 6 6 8 10 10 9 8 7 7 7 7 7 7 10 16 20 20 20 19 17 16 16 15 15 15 16 18 19 20 21 21 22 23 22 21 23 24 25 25 25 24 22 19 18 15 13 16 18 17 18 19 19 19 19 17 17 18 19 20 19 18 17 15 14 13 13 12 11 12 13 14 17 18 18 21 25 26 27
3 3 2 3 3 3 4 4 2 3 2 3 3 4 11 13 10 5 6 7 8 10 11 8 8 8 8 8 8 8 8 10 12 16 21 21 21 20 19 17 18 18 16 17 18 18 19 21 22 22 23 23 23 23 24 24 24 25 24 23 22 21 20 17 16 19 19 19 20 20 20 20 19 19 20 20 20 20 19 18 17 16 15 15 15 15 15 15 15 16 19 22 23 24 25 26 27
6 6 4 4 4 3 5 5 5 4 3 4 7 7 11 12 12 9 6 7 8 10 9 7 7 8 8 9 9 9 11 12 12 16 20 22 21 21 21 19 20 20 18 19 21 20 20 22 22 23 23 24 25 26 25 25 25 25 24 24 23 22 21 20 20 20 20 20 20 21 21 21 21 21 21 21 20 20 19 18 18 18 17 17 17 18 18 17 18 20 22 25 27 27 27 27 27
6 5 4 4 4 4 5 4 6 2 4 6 8 8 11 11 13 11 4 6 8 10 10 10 10 9 9 10 11 12 12 9 10 16 21 22 22 21 22 22 22 21 20 21 22 22 22 23 23 23 24 24 26 27 27 27 26 25 24 23 23 23 22 22 21 21 21 21 21 21 21 21 21 21 21 20 20 20 20 21 21 21 19 19 19 19 19 18 19 21 25 27 27 29 29 27 26
4 4 3 3 4 5 7 4 5 1 3 6 5 6 12 12 13 11 3 6 9 12 12 14 14 12 10 11 13 12 9 4 8 14 19 22 22 22 23 23 24 23 22 23 23 24 23 23 24 24 24 24 25 26 27 27 26 25 24 24 24 24 23 23 22 21 21 21 21 21 21 21 21 21 21 21 21 22 23 23 22 21 21 20 21 21 20 19 20 21 24 26 27 28 26 25 25
2 3 2 3 3 4 6 4 4 1 4 4 3 4 10 12 11 11 8 8 11 12 13 15 13 12 12 12 13 11 8 7 8 11 17 22 23 23 24 23 24 25 24 24 24 25 25 24 24 25 25 25 24 24 25 25 24 24 24 25 25 24 23 23 23 23 22 22 22 22 22 22 22 22 23 22 22 23 22 23 23 22 21 21 21 21 20 19 19 20 21 24 26 25 21 20 19
3 3 3 4 3 2 4 4 4 1 2 2 3 4 9 12 9 10 12 10 10 11 12 13 11 12 14 13 11 11 12 11 10 10 13 19 22 24 25 24 24 25 25 25 25 26 26 26 25 25 26 25 24 24 24 24 25 24 25 26 25 24 24 24 24 24 24 24 24 24 24 24 24 24 24 23 23 22 22 23 23 23 21 20 20 20 20 19 19 19 20 21 23 23 18 14 10
4 5 6 5 4 6 6 4 4 3 3 2 2 5 8 8 7 9 8 5 8 10 9 12 13 12 12 10 9 11 13 12 12 12 12 17 22 24 25 25 24 25 27 27 27 27 28 27 26 27 27 26 26 26 26 26 27 27 27 26 24 24 26 26 26 26 25 25 26 25 25 25 24 24 24 23 23 23 23 23 23 22 20 19 18 19 20 20 19 18 17 17 19 20 18 15 10
5 5 10 10 9 8 6 2 4 4 5 3 2 3 6 5 5 8 5 5 8 8 7 13 15 11 9 10 11 10 10 11 12 13 14 18 21 23 24 25 26 27 28 28 28 27 28 28 27 28 28 27 28 28 27 28 29 30 29 27 26 27 27 25 27 28 27 26 26 26 26 25 25 25 25 25 24 24 24 23 21 20 20 19 18 18 20 19 19 17 15 15 15 16 17 18 17
3 5 9 11 8 6 5 2 2 0 4 3 2 3 6 7 6 7 5 6 10 9 8 12 13 9 8 10 10 9 9 10 10 11 13 17 21 23 24 27 29 28 29 28 28 27 28 28 28 30 30 29 29 29 28 29 29 29 28 27 29 30 29 25 26 28 28 27 27 28 28 27 27 27 27 26 25 24 23 22 20 20 19 19 18 18 19 19 18 18 16 15 15 13 13 16 17
3 5 5 8 8 7 6 6 4 3 3 4 1 3 4 7 7 5 3 6 11 11 12 13 12 10 9 10 10 10 11 11 11 11 13 16 22 26 27 30 31 29 28 28 29 29 29 29 29 30 31 30 30 30 29 29 29 28 27 29 31 32 32 29 28 29 29 30 30 31 30 30 29 28 27 26 25 23 22 21 20 20 20 20 19 19 19 18 18 18 16 15 15 13 11 13 15
5 3 6 6 6 6 5 5 3 1 3 5 5 2 3 7 6 5 3 4 9 12 14 15 14 11 10 11 11 10 10 10 11 12 13 17 24 28 29 29 30 28 27 29 30 30 30 30 30 31 31 31 31 30 30 30 29 27 28 31 32 30 31 32 31 31 31 32 33 33 32 31 30 28 27 26 24 23 22 21 21 20 20 20 19 19 19 18 17 17 16 15 14 14 12 12 13
4 5 7 5 5 5 4 5 3 2 2 8 8 4 3 6 4 4 3 2 8 11 11 12 11 10 9 9 9 9 8 8 9 10 13 18 24 26 26 26 27 27 26 28 30 30 31 31 31 31 31 31 31 31 31 30 29 29 31 34 33 31 32 34 34 34 34 34 35 34 33 32 30 29 27 25 24 23 22 21 21 21 20 20 19 19 19 18 17 16 15 14 14 14 13 12 12
5 6 6 6 6 5 3 3 3 2 3 9 9 8 6 6 3 5 4 4 7 8 8 9 9 8 8 8 6 6 6 7 8 7 10 15 19 21 22 24 26 26 26 28 30 31 32 32 32 32 31 31 31 31 32 31 31 32 34 34 34 34 35 37 37 37 36 36 36 36 34 33 31 29 28 26 25 24 23 22 21 21 21 20 20 19 19 18 17 16 16 15 14 13 13 11 12
5 4 5 4 4 4 4 4 3 1 6 6 4 5 8 7 6 5 6 6 7 8 8 10 10 9 7 6 5 5 6 6 7 7 8 12 15 19 22 24 27 27 27 30 32 33 34 34 33 32 31 31 32 32 32 32 33 34 35 34 35 36 37 39 41 41 40 39 39 37 36 34 32 30 28 27 26 24 24 23 22 22 21 20 20 19 18 18 17 16 15 15 14 13 12 11 11
4 4 6 4 2 3 3 3 0 3 7 4 0 3 4 8 9 8 9 10 11 10 9 10 10 10 7 5 5 5 5 6 7 7 8 9 12 18 23 26 28 29 30 32 34 34 35 35 35 34 33 33 33 33 33 34 35 35 35 35 36 37 39 41 43 43 42 41 41 40 38 36 34 32 30 29 27 25 24 23 23 22 21 21 20 19 18 17 16 15 15 14 13 12 11 10 10
5 5 6 5 2 0 3 4 2 4 6 3 1 1 3 5 6 11 15 15 13 10 9 9 10 10 8 6 5 5 6 7 7 8 9 10 13 19 24 27 30 31 32 33 34 35 35 35 35 35 34 33 34 34 35 35 36 36 36 36 37 39 41 44 45 45 43 42 41 40 39 37 36 34 32 30 28 27 25 24 23 22 21 20 20 19 18 17 15 14 13 12 12 11 10 9 9
5 4 5 5 5 4 4 4 4 5 4 4 2 2 4 3 3 8 11 10 9 9 9 9 10 9 6 6 5 5 6 7 7 8 10 11 15 21 24 27 30 31 33 33 34 35 35 35 36 35 35 35 35 35 36 36 36 36 37 37 38 40 43 45 46 45 44 43 41 40 38 37 35 34 32 30 29 27 26 25 23 22 22 21 20 19 18 16 14 13 12 11 11 11 10 9 8
3 2 4 4 6 5 2 3 5 2 3 4 3 3 5 4 6 8 7 7 8 7 9 10 12 9 3 5 7 6 7 7 7 8 9 11 17 22 24 27 29 31 33 33 34 35 36 36 36 36 36 37 37 37 37 37 37 37 38 39 40 41 44 46 46 45 44 42 41 39 38 36 34 33 33 31 30 28 26 26 24 23 22 21 19 18 16 15 14 13 12 12 12 12 11 9 8
2 3 4 4 4 6 2 3 1 3 3 5 3 5 5 3 7 8 6 9 10 8 9 10 11 8 4 7 7 6 6 7 8 8 8 10 15 20 23 26 28 30 32 33 34 36 37 38 37 37 36 37 38 38 38 38 38 38 39 40 41 43 45 46 46 45 43 41 40 38 37 36 35 34 33 32 30 29 27 26 25 24 22 21 19 17 15 15 14 13 13 12 12 12 11 9 8
6 4 6 2 2 2 2 2 3 3 4 5 2 5 4 1 5 5 0 7 11 11 11 10 11 8 7 10 8 6 7 7 7 8 7 9 14 18 22 25 27 30 32 34 35 37 37 38 38 37 37 38 39 39 39 39 39 39 40 41 42 44 45 45 46 45 43 42 40 38 37 36 35 34 33 32 31 30 28 26 25 24 23 21 19 18 16 15 15 14 14 13 13 12 11 10 9
5 4 5 4 2 1 2 2 2 1 3 5 3 4 4 5 6 3 3 8 10 11 11 9 11 10 9 11 8 6 6 6 6 7 7 8 13 18 22 24 27 30 32 33 34 35 36 37 38 38 38 38 39 39 39 40 40 40 41 42 43 44 45 45 45 44 43 42 41 40 38 37 36 35 34 33 32 31 29 28 26 25 24 22 20 18 17 16 16 16 15 15 14 13 12 11 11
3 2 2 2 2 3 3 3 3 3 3 3 3 3 3 6 7 7 10 10 9 9 9 8 11 11 10 11 7 5 6 7 7 8 8 8 13 19 23 25 28 30 31 32 33 34 35 35 36 37 36 37 39 40 40 40 40 41 41 42 43 44 44 45 45 44 44 42 41 41 39 38 37 36 34 33 32 31 30 29 27 25 24 22 21 19 18 17 17 16 16 15 15 14 13 12 11
4 4 5 3 1 2 1 1 2 4 2 2 3 6 6 5 5 9 11 10 10 10 8 7 9 10 10 9 6 5 6 7 7 7 7 8 12 18 22 24 26 28 29 31 33 34 35 34 36 36 36 37 39 40 41 41 41 41 42 43 45 44 44 44 44 44 44 43 42 41 40 39 38 36 35 34 33 31 30 29 27 26 24 22 21 20 19 18 17 17 17 16 15 15 14 12 11
7 7 9 9 7 5 3 3 1 2 2 4 2 7 9 4 4 7 7 7 9 8 7 7 8 9 9 7 5 6 6 7 7 7 7 8 11 17 21 23 26 27 29 31 32 33 34 34 35 36 37 38 40 41 41 40 40 41 42 44 45 45 44 44 44 44 44 43 43 41 40 39 38 37 35 34 33 32 30 29 28 26 24 23 21 20 19 19 18 18 18 17 16 15 14 12 11
Wind_Direction
346 327 293 301 325 152 52 55 73 349 68 85 358 72 221 218 207 172 125 308 44 346 300 51 43 64 96 119 143 141 125 156 164 142 208 237 58 82 193 203 220 178 171 166 159 158 154 150 145 139 133 128 127 120 113 107 105 107 107 105 103 102 100 103 113 116 109 102 97 94 91 87 82 79 75 71 69 68 66 62 55 52 50 47 44 42 46 50 52 51 52 58 62 64 72 82 85
342 318 311 325 33 102 205 64 93 346 56 84 299 161 236 335 143 173 186 217 150 176 129 88 75 64 74 107 115 93 61 299 190 188 244 270 66 72 144 157 166 165 172 168 162 162 161 155 148 144 140 138 135 125 118 114 112 112 112 111 109 107 106 107 111 115 112 107 101 96 92 89 85 80 78 74 70 69 67 63 57 54 51 48 45 45 49 53 54 55 56 61 65 68 72 80 83
341 319 328 172 52 45 82 47 95 76 77 125 258 238 279 16 192 196 204 175 156 164 130 77 76 59 62 79 54 74 67 314 294 268 285 56 88 88 116 132 142 160 172 170 166 166 166 159 153 151 146 145 139 130 126 121 119 118 116 116 114 112 111 112 110 110 108 104 103 100 95 90 87 82 79 75 74 73 70 64 58 56 53 50 47 47 53 57 57 59 60 64 71 71 71 79 82
333 351 349 176 82 29 60 43 120 115 113 174 221 257 251 185 196 208 226 195 183 176 137 55 60 2 89 92 39 100 98 298 314 296 292 346 124 136 149 149 154 166 172 174 171 170 168 163 160 156 150 147 141 137 133 127 125 123 121 120 120 118 116 115 111 107 103 99 99 100 99 95 89 85 82 78 77 74 68 62 59 55 53 52 50 51 56 61 62 64 65 66 74 76 74 76 77
324 18 11 126 99 42 89 72 106 101 167 180 155 252 244 196 199 210 243 248 231 210 180 91 87 295 74 92 120 117 270 285 317 311 301 257 166 172 172 169 174 171 174 179 175 173 170 168 166 158 151 148 146 143 139 133 131 128 125 123 123 123 121 118 114 108 104 101 97 96 99 98 95 90 87 84 80 74 68 62 58 53 54 54 52 53 59 64 65 68 70 69 76 79 77 76 75
344 68 40 73 86 114 106 95 114 112 206 170 148 238 230 197 205 196 207 333 86 168 177 93 136 154 60 350 91 123 253 295 320 314 327 235 180 185 188 179 182 179 178 181 180 177 174 174 169 162 158 154 152 148 144 141 135 132 130 126 125 125 123 120 117 113 108 106 101 97 99 100 101 97 93 91 85 78 71 64 58 54 56 56 55 56 61 67 67 70 72 74 77 76 80 85 85
107 123 34 63 47 38 97 120 148 170 191 172 177 198 200 207 203 161 146 72 67 24 53 102 140 112 64 303 78 64 12 331 299 335 353 256 194 185 189 184 185 185 182 183 184 182 178 176 172 172 170 163 159 155 151 147 141 137 135 133 130 127 128 126 121 119 116 112 108 103 103 105 107 104 100 95 89 83 75 67 61 57 58 58 58 58 63 69 70 72 75 79 77 77 87 93 93
78 112 20 78 35 24 91 104 161 181 148 210 224 187 192 204 185 144 145 121 129 355 69 159 98 89 332 6 122 273 36 15 340 68 11 261 193 180 186 186 187 187 185 185 184 186 185 180 181 180 177 172 166 163 160 155 149 143 142 140 136 135 135 135 132 130 126 120 115 111 109 109 110 109 105 99 93 88 79 71 64 59 61 61 60 61 64 71 73 72 77 83 82 87 95 95 94
55 45 67 78 76 39 57 43 127 215 264 252 236 221 212 186 164 130 114 74 161 123 128 231 353 95 193 60 274 279 16 46 102 100 78 179 175 174 182 182 185 187 183 184 183 188 187 183 187 186 185 180 173 172 167 162 158 151 148 146 143 141 141 143 141 139 135 131 126 120 115 114 114 112 110 104 98 92 85 75 68 63 64 65 62 63 66 71 75 74 77 83 89 95 97 94 94
38 28 124 76 83 63 38 46 237 242 260 254 230 234 216 169 152 110 115 118 120 87 262 233 73 108 141 131 257 295 8 94 127 119 101 121 157 167 177 180 187 188 179 182 182 188 191 188 189 191 195 188 181 178 172 169 164 158 154 152 151 147 148 151 149 147 141 137 133 128 124 119 117 116 115 110 104 98 91 81 71 67 69 70 67 67 69 73 77 78 79 82 88 93 94 94 94
35 358 99 77 77 107 174 185 249 253 273 304 284 250 211 165 130 75 78 113 97 101 198 84 88 133 110 145 258 245 209 160 149 135 112 118 149 166 174 179 189 188 178 182 183 188 192 190 191 192 196 192 188 185 178 174 167 164 160 156 158 155 157 158 157 155 146 142 136 134 131 123 121 120 119 118 113 106 98 87 75 72 74 75 73 73 73 76 79 81 83 84 87 89 91 92 92
92 339 64 86 125 168 189 165 215 251 301 322 219 260 188 147 132 128 128 122 103 115 174 228 154 142 89 306 265 259 223 192 171 142 128 136 147 160 171 176 182 183 180 185 187 191 194 194 197 197 199 196 190 189 186 178 174 169 166 164 162 162 163 163 162 159 152 150 143 138 135 127 128 128 128 127 122 117 106 92 79 76 78 78 76 76 76 78 80 82 84 87 90 91 92 91 90
120 145 85 95 151 144 146 144 208 262 316 251 194 267 124 143 166 167 148 110 83 122 213 273 154 113 98 244 274 289 231 195 172 150 149 155 151 150 162 170 172 174 176 179 176 176 182 189 194 196 203 209 203 194 189 183 181 176 172 170 166 166 165 164 163 161 162 159 153 149 143 136 132 131 134 134 131 125 112 94 81 78 81 81 78 76 76 77 79 81 83 85 88 91 92 90 87
131 155 103 107 101 112 137 133 217 155 234 248 222 275 98 144 177 161 134 102 279 172 320 307 135 115 117 220 291 271 215 189 169 164 165 163 162 154 156 161 166 170 171 174 172 167 172 184 192 199 202 202 208 201 193 190 187 187 181 173 169 170 167 166 168 168 172 170 167 161 153 142 133 132 136 138 138 130 115 100 84 81 84 84 80 77 75 75 76 78 80 81 83 85 86 86 84
126 139 84 106 90 85 152 165 166 152 211 225 186 184 85 65 137 140 143 132 230 247 334 349 97 170 185 167 233 230 185 178 170 172 172 166 166 162 160 160 164 170 174 180 184 180 184 203 198 198 199 187 202 205 196 196 196 198 186 177 175 174 170 167 172 176 179 181 180 172 159 146 135 132 136 144 145 138 124 108 90 86 89 88 83 80 77 74 74 74 76 76 77 79 79 80 79
109 111 69 93 125 147 177 173 124 132 229 216 212 143 92 343 116 124 234 140 142 334 4 329 16 328 194 185 240 179 161 168 171 173 169 163 165 164 163 165 166 170 176 179 184 179 183 206 188 186 202 194 201 200 195 199 199 204 193 184 180 177 175 171 176 181 183 184 182 174 165 156 148 139 139 149 153 147 136 118 100 93 95 95 89 84 79 75 74 73 73 73 72 73 74 76 75
59 78 67 83 149 184 183 172 166 166 226 231 259 203 118 257 347 127 297 70 109 16 19 277 321 355 205 231 242 140 153 165 169 169 160 156 161 162 163 167 169 173 179 182 189 182 178 193 174 177 197 195 192 183 188 203 199 204 198 189 184 181 179 176 179 182 186 186 182 178 172 166 158 150 149 153 156 154 144 129 111 102 104 104 98 89 83 77 75 74 72 71 70 72 74 75 75
55 81 93 124 170 189 177 179 195 171 186 201 213 182 138 164 232 156 69 40 61 46 17 333 338 353 311 211 141 146 158 166 168 166 158 155 159 162 165 171 174 180 186 190 199 198 193 197 185 182 192 192 191 181 187 201 201 198 195 194 191 189 186 184 183 180 184 183 182 182 176 169 163 160 161 159 160 161 153 139 120 111 111 110 106 96 86 80 76 74 72 69 68 69 73 75 74
83 108 95 180 198 197 187 179 191 182 177 179 189 176 154 174 169 142 165 341 35 88 340 341 347 323 307 155 149 159 166 167 170 169 162 162 164 165 168 174 180 185 189 192 198 203 204 208 202 196 197 194 199 200 195 194 198 196 194 199 195 195 195 191 188 185 183 178 180 179 173 169 164 164 164 165 165 165 159 147 131 120 121 122 113 100 91 83 78 78 75 72 70 69 71 73 73
131 108 86 226 213 217 215 187 200 219 173 154 177 177 165 202 162 146 178 173 189 200 213 230 255 239 213 207 165 156 166 166 171 172 168 171 173 174 175 177 184 187 191 194 197 201 203 208 208 203 203 204 209 213 205 193 193 197 197 200 197 198 203 202 199 196 187 177 180 175 173 174 164 164 172 170 170 170 164 155 140 132 137 140 125 110 103 95 87 85 85 82 76 73 74 75 74
103 102 147 213 178 171 217 194 210 210 159 152 148 119 163 236 170 157 148 143 259 244 215 195 206 205 191 209 186 157 162 164 171 174 172 176 179 184 185 186 190 193 198 200 202 206 205 208 209 207 206 206 209 210 204 195 193 200 201 200 202 201 206 208 204 203 200 188 192 193 182 177 170 175 186 176 171 173 168 159 147 145 152 151 142 129 119 113 104 97 97 92 84 80 80 79 77
70 56 188 195 143 118 221 193 191 149 119 111 119 139 184 188 131 161 151 165 230 232 227 215 206 188 178 182 175 160 159 164 172 176 176 179 184 188 192 196 201 205 210 211 212 213 212 211 210 211 209 204 204 202 200 196 195 202 202 203 207 205 209 212 204 201 206 193 190 204 190 177 180 190 197 182 172 173 170 162 154 155 160 158 160 154 139 130 119 110 105 98 92 87 83 83 80
96 346 284 208 173 182 218 170 182 140 111 126 156 179 148 119 283 195 172 204 226 247 261 229 200 170 163 158 161 160 162 170 175 180 181 182 187 191 196 202 208 217 222 226 227 222 220 217 213 212 211 207 204 200 197 197 199 200 199 205 206 204 205 203 199 195 196 188 189 205 194 182 185 191 197 184 173 173 172 168 164 165 168 168 170 170 163 148 131 121 113 103 98 90 84 84 82
91 126 307 212 181 208 219 123 155 133 133 180 171 122 140 176 224 80 211 238 258 314 310 162 146 144 148 148 160 168 168 175 179 184 186 188 193 195 200 208 215 224 230 233 233 230 224 219 217 213 209 206 207 201 194 199 204 199 197 204 206 202 202 199 197 198 193 190 200 206 196 192 187 181 184 180 176 176 174 172 172 172 174 176 181 186 175 158 144 135 125 111 102 90 85 86 84
72 144 230 186 182 254 333 62 85 130 140 158 119 135 215 197 184 100 241 247 302 24 71 111 123 128 143 153 165 170 171 179 180 183 187 190 194 196 202 211 219 228 234 232 229 230 224 218 217 212 204 203 208 202 195 202 203 198 197 199 200 199 204 209 204 203 205 199 205 208 202 200 192 184 183 180 180 179 176 176 179 180 181 185 192 189 169 161 154 146 136 119 107 96 91 91 88
173 150 185 154 342 324 34 121 264 219 119 105 127 234 279 258 230 272 249 223 165 89 89 109 126 133 154 164 175 175 175 183 181 182 185 188 191 199 204 211 223 230 231 227 222 224 221 214 212 208 200 199 205 200 198 204 197 197 199 186 186 191 190 194 194 196 204 204 209 210 204 203 193 190 190 184 182 179 178 180 184 187 188 189 190 173 161 163 158 148 138 122 115 110 104 102 97
162 129 139 97 343 313 123 195 255 312 305 172 172 236 282 330 300 254 259 198 154 109 103 128 138 154 173 174 189 184 186 189 185 182 181 186 194 201 204 209 221 223 221 222 216 216 212 205 204 198 192 194 198 192 192 196 191 193 195 177 176 181 169 171 181 186 190 191 199 198 192 198 194 191 189 183 182 179 180 183 183 186 183 176 174 164 159 161 155 145 134 122 121 121 115 110 105
80 96 90 357 344 305 168 217 259 149 244 185 163 220 286 354 255 234 243 177 159 133 143 168 162 179 188 186 196 192 198 195 189 187 186 192 197 199 204 208 213 209 209 213 206 203 198 196 194 184 184 190 189 184 184 191 193 189 190 183 179 183 182 186 187 184 183 179 179 178 180 197 195 190 187 183 185 181 179 177 173 173 167 160 162 162 158 157 151 143 133 126 129 128 120 114 110
46 58 354 315 356 335 241 234 231 166 194 179 146 263 280 231 223 247 245 158 141 140 167 193 195 206 205 202 202 200 206 198 194 199 200 201 201 203 207 211 209 203 204 200 195 192 187 187 183 177 179 185 182 182 184 185 188 183 185 186 177 185 193 188 180 179 190 181 172 176 190 199 192 187 183 180 183 181 174 169 164 160 158 159 162 164 161 157 152 145 138 133 132 128 119 114 112
343 45 48 319 1 334 277 32 169 163 177 174 147 270 266 242 243 259 192 154 135 156 197 209 212 221 218 215 211 214 211 200 202 207 207 207 209 209 210 211 205 205 204 192 189 184 180 181 178 175 177 181 180 181 180 176 180 179 182 188 188 191 186 178 176 181 198 195 185 187 189 187 182 179 177 175 175 172 166 162 158 156 158 163 164 166 163 156 151 143 137 133 129 126 120 119 119
5 12 38 6 3 281 290 350 148 156 185 146 133 237 267 265 269 263 191 169 157 184 212 212 217 224 220 221 216 221 216 207 210 209 209 211 211 208 206 207 201 205 202 190 189 183 180 179 177 178 177 177 178 178 178 182 184 176 176 186 186 182 178 180 181 179 189 190 183 180 175 174 172 169 170 170 167 164 162 159 158 157 158 162 160 160 160 152 149 143 140 141 136 129 127 128 127
31 319 310 347 174 269 304 290 162 156 229 63 128 225 275 272 278 281 187 179 178 198 217 216 222 223 219 225 219 226 228 219 218 215 212 211 209 205 204 204 198 201 200 191 191 185 183 180 177 180 177 175 175 173 174 178 178 171 171 172 168 169 171 173 173 179 186 181 179 176 169 170 170 165 166 170 171 168 167 164 160 157 156 160 157 154 155 152 154 152 149 158 149 134 130 128 126
359 90 251 278 181 279 316 305 225 181 119 25 179 231 281 275 291 331 161 182 194 214 232 225 226 228 221 226 224 227 231 227 226 220 214 209 207 204 203 204 198 200 200 195 195 187 185 182 177 179 178 175 174 171 171 171 172 175 176 168 165 173 176 173 181 196 189 180 180 177 172 173 172 171 174 180 181 172 167 162 154 151 154 157 152 148 151 152 158 155 146 150 147 135 130 127 123
316 10 234 243 200 222 298 305 281 131 121 210 216 235 254 261 279 242 175 185 192 220 236 230 228 231 228 228 228 228 224 226 226 217 210 205 205 203 201 203 200 198 198 199 199 190 187 185 179 180 180 174 173 175 172 170 170 174 171 164 165 173 174 175 187 190 182 179 181 178 177 177 177 179 179 179 174 164 158 153 145 146 152 152 148 144 145 145 150 152 143 139 139 134 131 127 123
194 196 203 250 235 215 253 283 249 143 125 224 198 241 257 266 274 240 198 184 192 222 234 236 235 231 232 229 226 227 224 228 224 211 205 203 203 201 198 201 202 198 197 201 201 194 191 188 181 180 181 176 176 178 174 170 168 168 164 158 160 164 165 168 178 179 176 179 180 178 177 176 176 175 171 170 164 157 152 148 145 147 151 149 144 140 138 139 141 142 139 136 135 131 129 127 125
161 177 157 186 222 246 237 251 257 187 153 232 214 230 252 262 271 257 209 180 202 234 244 246 242 231 228 227 227 225 224 231 220 205 203 202 203 201 196 200 205 200 199 202 198 195 192 189 183 180 181 179 177 174 171 170 165 161 158 154 153 154 157 160 167 171 170 173 174 171 171 169 169 166 163 165 162 158 153 150 149 148 148 146 140 134 131 132 134 134 135 136 135 130 127 126 127
122 129 139 187 203 265 258 250 287 226 158 246 228 231 254 256 265 267 212 166 215 241 246 246 239 232 227 223 226 223 226 228 203 198 202 202 203 202 198 199 204 202 201 201 196 195 192 187 184 180 178 178 175 171 169 169 164 159 157 155 152 151 154 158 161 164 164 165 164 163 163 163 164 162 162 165 162 159 153 150 149 145 145 143 135 129 126 127 129 131 134 136 135 132 128 126 128
97 125 173 249 212 248 259 240 300 316 170 263 251 237 260 255 258 267 212 168 224 231 232 240 235 232 230 225 228 224 222 205 180 194 198 199 201 200 199 198 202 203 199 198 196 195 192 187 184 182 181 178 174 171 169 169 169 168 166 162 158 154 155 159 160 162 162 161 160 161 161 160 161 160 160 161 158 155 150 148 148 145 145 141 132 125 124 126 128 134 137 136 137 135 132 132 134
108 119 162 259 245 269 279 274 317 8 178 266 287 255 265 260 254 260 240 215 234 229 224 236 234 231 231 225 228 220 210 199 187 193 192 196 199 195 197 199 201 204 199 197 198 195 191 187 185 183 182 179 175 172 170 171 173 173 170 164 161 159 157 159 159 159 161 161 160 160 159 159 159 158 157 158 156 153 150 149 147 145 144 140 134 128 124 125 129 139 144 142 140 137 135 142 146
194 166 173 244 253 261 275 291 322 308 193 268 299 294 274 268 260 256 248 235 248 247 235 243 238 232 234 227 224 213 208 206 194 194 191 194 196 193 196 198 199 201 198 196 195 193 190 186 186 184 181 179 178 177 177 177 174 170 165 160 160 160 157 157 155 155 159 159 158 158 158 158 159 158 158 160 157 153 151 148 145 144 140 136 135 132 128 125 128 136 143 147 146 141 137 143 158
241 202 194 219 228 218 230 284 324 332 344 347 323 309 280 267 257 253 265 276 267 258 244 253 248 237 241 240 231 217 210 205 193 194 192 190 194 194 195 197 197 198 198 196 193 192 189 185 186 185 181 181 183 183 182 179 171 164 159 153 151 151 150 153 152 151 155 157 156 156 157 159 160 159 159 159 156 151 149 146 143 139 135 134 135 133 129 126 126 129 135 145 150 147 139 127 127
276 228 204 213 216 221 237 316 4 359 328 331 25 300 278 291 274 257 288 319 276 261 239 250 253 242 237 239 235 221 211 205 195 194 191 190 192 192 193 195 197 199 199 195 192 193 190 186 187 187 184 184 186 186 183 178 171 165 161 157 153 148 145 150 153 153 156 157 156 156 157 158 159 157 155 154 151 148 146 142 140 137 135 135 135 131 127 124 123 124 128 136 140 143 140 126 115
271 246 206 209 202 202 216 179 92 242 261 283 92 207 268 305 290 254 262 271 265 267 256 254 258 249 231 233 233 220 208 202 196 194 189 189 189 187 191 195 196 199 199 194 191 192 192 189 189 190 187 186 188 186 182 177 173 171 170 171 169 161 155 155 157 157 158 158 155 154 153 153 153 152 150 149 148 146 143 140 139 138 136 134 132 129 124 121 121 120 122 125 125 130 137 130 122
239 253 177 176 177 188 195 170 185 234 266 306 13 161 262 290 275 261 263 267 272 273 267 264 260 249 236 235 232 218 209 198 190 193 188 189 190 190 192 194 196 198 196 193 190 191 192 191 191 191 189 189 189 187 183 179 177 177 177 175 171 167 164 161 160 158 156 156 153 151 150 149 149 149 148 147 147 146 144 142 141 139 136 133 130 126 122 121 119 119 119 117 117 119 123 126 129
244 219 128 142 156 165 155 139 185 290 20 298 283 136 247 265 264 299 323 265 271 270 263 264 262 255 244 239 234 222 212 199 192 192 190 190 192 194 194 192 194 195 194 193 191 190 191 190 190 190 190 191 190 187 184 181 182 185 183 175 168 166 165 162 162 160 156 155 152 151 151 150 149 149 149 148 148 147 146 143 141 139 136 133 130 126 122 121 120 119 119 117 117 117 116 119 124
214 132 96 77 78 81 84 108 131 50 37 255 249 161 226 264 237 267 320 224 254 263 262 263 264 262 251 245 242 224 207 200 197 194 192 193 194 194 192 189 190 192 193 193 191 191 191 191 190 190 191 192 191 189 186 184 185 187 183 177 172 168 164 161 161 160 157 156 155 153 153 152 152 151 151 151 149 148 146 143 142 141 137 134 131 127 125 125 125 123 122 120 118 117 119 120 118
137 107 69 46 36 40 41 61 83 54 266 250 237 178 197 268 243 219 233 209 226 245 262 271 274 276 263 255 253 223 201 196 193 189 186 187 190 190 188 187 188 190 191 192 192 192 192 192 192 192 193 193 192 192 190 187 187 187 184 181 179 174 168 163 161 160 160 159 158 156 156 155 154 154 153 152 151 149 147 146 145 142 139 136 133 130 130 130 129 128 125 122 120 120 123 122 119
112 91 82 66 351 9 15 2 48 218 249 252 251 162 178 238 255 236 245 247 239 232 243 261 269 273 268 267 261 222 201 191 181 178 174 171 176 183 185 186 186 187 189 191 191 192 191 192 192 191 193 194 192 192 193 191 188 187 186 185 184 179 175 170 166 164 164 163 161 158 158 157 156 156 155 154 152 151 150 149 147 144 141 139 136 134 134 134 132 129 125 124 124 124 124 123 124
102 103 109 105 324 355 344 305 132 233 254 260 339 119 185 238 251 252 256 256 249 236 232 244 257 264 270 278 259 216 192 185 181 178 176 174 177 182 184 184 186 187 189 190 191 190 190 191 192 191 192 193 193 192 193 193 190 190 189 187 186 183 180 176 171 169 168 167 165 162 161 160 160 159 158 156 154 154 154 152 150 147 144 142 140 139 138 136 132 128 126 127 127 127 127 128 130
161 149 143 141 152 190 266 269 270 262 269 285 266 179 241 267 258 241 237 239 243 246 246 245 251 256 261 269 245 207 196 190 187 184 183 187 186 185 185 185 186 188 189 189 190 190 189 190 191 192 192 193 194 194 193 193 192 193 192 190 188 185 182 179 175 173 172 171 169 167 166 165 163 162 160 158 157 157 157 155 153 150 147 146 144 143 141 137 132 130 130 132 132 133 136 136 133
186 157 140 159 163 168 215 221 230 258 285 300 279 202 200 207 258 244 234 247 258 262 271 269 265 259 252 258 241 209 206 199 192 193 193 194 189 187 188 188 188 189 188 189 189 189 189 189 191 191 192 193 194 195 194 194 194 194 193 192 190 188 184 180 177 176 175 174 173 171 169 168 165 163 161 161 160 160 160 158 156 154 152 151 150 147 143 138 137 138 140 143 144 144 147 146 139
222 114 118 191 186 166 208 209 180 194 302 295 237 223 216 206 270 271 252 270 273 266 277 277 272 275 277 262 243 214 210 202 197 199 198 196 191 189 190 190 190 189 188 188 189 189 190 190 191 193 194 195 195 196 196 196 196 195 194 193 191 188 184 180 178 178 178 177 176 174 171 170 167 165 164 163 163 163 163 161 159 158 156 155 153 150 145 142 145 150 153 158 156 155 158 155 148
164 142 177 208 170 145 177 269 70 83 268 268 200 235 287 315 282 275 246 254 265 271 270 262 264 281 299 268 242 217 217 203 200 203 197 194 192 192 194 192 191 190 189 189 190 191 192 192 192 193 194 196 196 197 198 198 198 197 195 194 192 188 184 182 181 180 179 179 177 176 174 171 170 168 167 166 165 165 166 164 163 162 160 158 156 153 151 151 156 162 166 169 166 163 165 164 160
129 182 202 150 79 104 116 247 343 41 251 271 222 233 276 291 273 306 284 234 252 258 256 257 268 277 276 267 245 213 217 206 201 203 195 193 193 193 196 195 194 193 191 191 191 192 194 195 194 193 194 195 196 197 198 199 199 198 196 194 192 188 185 184 183 182 181 180 179 178 176 174 172 172 170 169 168 168 168 168 167 165 163 162 160 158 159 161 167 173 175 176 175 171 172 173 171
131 183 186 125 135 215 120 172 232 201 247 286 288 252 243 202 228 274 216 217 232 249 253 255 262 261 260 265 251 208 209 207 200 198 193 192 194 194 195 195 196 195 194 193 193 193 194 196 197 197 198 198 198 198 198 199 199 199 198 195 192 190 187 186 186 185 184 183 182 180 178 176 175 175 174 172 172 171 171 172 171 169 166 165 165 165 167 172 176 181 183 182 181 179 182 182 178
64 113 147 119 158 178 163 167 170 170 224 284 308 301 249 218 209 199 212 219 215 236 250 246 251 252 252 260 251 205 203 209 204 199 197 191 192 195 195 195 196 196 196 195 193 194 195 196 197 198 199 199 198 199 198 198 199 199 198 196 193 191 189 188 188 187 186 186 185 182 181 179 178 178 177 176 175 174 174 174 174 173 170 169 170 171 175 179 183 189 190 189 188 186 189 188 183
156 166 172 182 140 107 159 205 133 137 169 219 290 292 263 237 204 192 206 215 206 219 232 235 248 250 251 261 256 213 204 211 210 199 197 193 190 193 194 196 197 196 196 196 195 195 195 196 197 198 198 198 198 198 198 198 199 198 198 196 194 193 191 191 190 189 189 188 187 185 183 182 181 181 180 179 178 178 177 177 176 176 175 174 175 176 180 185 190 194 196 195 194 191 192 193 190
179 188 191 187 173 147 174 236 200 125 172 183 200 275 266 241 192 199 206 206 208 215 215 228 253 256 264 278 250 212 207 207 207 198 193 191 187 188 190 192 195 195 197 197 197 197 196 197 197 197 198 199 198 197 197 198 198 198 199 197 195 194 193 192 192 191 191 191 189 188 186 185 184 184 183 183 182 181 180 180 179 179 179 179 179 181 186 192 196 200 201 200 198 197 198 199 196